Dewpoint
70 70 69 70 69 69 69 69 70 70 70 69 67 66 66 65 66 68 68 68 70 69 68 68 67 67 66 65 65 65 63 64
68 69 70 70 70 68 68 69 68 68 68 68 66 66 66 66 68 67 68 69 69 68 67 67 66 66 65 65 64 64 62 63
66 68 69 70 70 69 68 68 68 68 68 66 65 65 63 65 65 68 68 68 68 67 66 66 65 64 64 64 64 63 62 64
65 67 68 69 67 70 69 68 68 67 68 68 68 66 65 64 65 67 68 67 67 66 66 64 64 64 63 63 63 62 62 63
64 67 68 69 69 69 68 67 66 67 67 68 68 65 69 64 67 64 68 67 65 66 64 65 63 63 62 65 62 61 61 60
64 65 67 70 68 67 66 67 66 66 67 69 68 66 67 66 60 59 64 68 66 64 64 65 64 63 63 63 61 58 52 57
63 65 67 69 68 65 66 68 67 67 67 69 68 67 65 63 62 64 65 68 67 65 64 65 64 62 61 60 56 54 53 56
61 65 66 68 68 68 67 67 67 69 68 68 68 67 68 64 66 64 65 67 66 65 64 62 64 60 60 56 55 53 53 53
58 64 66 67 68 67 67 65 66 68 67 68 68 68 67 66 65 64 64 67 64 64 63 63 64 59 58 55 54 55 52 52
53 57 65 68 67 67 65 65 65 67 67 67 67 67 67 67 65 66 65 66 64 63 63 62 61 59 56 58 56 53 52 52
47 60 63 68 67 65 65 66 65 66 66 66 66 66 66 65 66 66 65 65 64 62 62 60 59 58 56 58 59 52 52 49
47 56 63 67 66 66 64 64 65 65 64 64 66 66 65 65 65 65 66 65 63 61 60 60 58 56 53 55 57 55 52 50
50 54 62 64 64 64 64 62 63 63 63 64 65 66 64 65 65 64 63 62 62 61 61 59 58 57 57 57 58 57 57 50
52 55 59 63 64 64 63 63 63 63 62 63 64 64 64 64 64 63 63 62 62 60 60 58 58 58 55 55 53 54 54 49
53 55 58 62 63 63 62 62 63 61 61 62 63 63 63 63 63 63 62 62 61 60 60 57 56 57 58 54 51 49 52 51
54 55 57 63 64 62 62 60 59 60 60 61 62 63 62 62 62 62 62 61 61 60 60 59 58 55 57 55 55 51 50 49
57 56 57 63 63 62 61 60 59 58 58 60 61 62 63 62 62 61 61 61 61 59 60 59 58 57 56 55 54 52 54 50
59 57 57 61 62 62 61 61 58 57 57 58 61 62 62 62 62 61 60 60 60 59 59 59 58 57 57 56 53 52 51 51
58 58 57 61 62 62 61 60 59 58 58 57 59 61 62 62 62 61 60 59 59 59 59 59 58 57 55 55 55 54 52 51
56 57 59 59 61 61 60 59 58 57 57 56 57 60 60 60 61 60 60 59 59 58 59 59 59 59 56 57 55 54 53 51
Lifted_Index
-5 -5 -4 -4 -4 -4 -4 -4 -4 -4 -4 -3 -2 -2 -1 -0 -0 -1 -2 -4 -5 -4 -4 -4 -3 -3 -3 -2 -2 -2 -2 -2
-5 -5 -5 -5 -4 -4 -4 -4 -4 -4 -3 -3 -2 -2 -1 -1 -1 -2 -3 -4 -4 -4 -3 -3 -3 -2 -2 -2 -2 -2 -2 -2
-5 -6 -6 -5 -5 -4 -4 -4 -4 -3 -3 -3 -3 -2 -1 -2 -2 -3 -3 -3 -3 -3 -2 -2 -2 -2 -2 -2 -2 -2 -2 -2
-5 -6 -6 -6 -5 -5 -4 -4 -4 -4 -3 -3 -3 -2 -2 -2 -2 -2 -2 -2 -2 -2 -1 -1 -2 -2 -2 -2 -2 -2 -1 -1
-5 -6 -6 -6 -6 -5 -5 -5 -4 -4 -4 -3 -3 -3 -2 -2 -2 -2 -2 -2 -2 -1 -1 -1 -1 -2 -2 -2 -2 -1 -1 -1
-5 -5 -6 -6 -6 -5 -5 -5 -5 -4 -4 -4 -3 -3 -2 -2 -1 -1 -1 -2 -2 -1 -1 -1 -1 -2 -2 -1 -1 -0 -0 -0
-5 -5 -6 -6 -5 -5 -5 -5 -5 -5 -5 -4 -3 -3 -2 -2 -1 -1 -1 -2 -2 -1 -1 -1 -1 -1 -1 -1 0 1 1 1
-4 -5 -6 -6 -5 -5 -5 -5 -5 -5 -5 -4 -3 -3 -2 -2 -2 -1 -1 -2 -1 -1 -1 -1 -1 -1 -0 0 1 1 2 2
-3 -4 -6 -6 -6 -5 -5 -5 -5 -5 -4 -4 -4 -3 -3 -2 -2 -2 -1 -1 -1 0 0 -0 -0 0 0 1 1 2 2 3
-2 -3 -5 -6 -6 -5 -5 -4 -4 -4 -4 -4 -3 -3 -3 -2 -2 -2 -2 -1 -0 0 1 1 1 1 1 1 1 2 3 3
-0 -2 -5 -6 -6 -5 -5 -4 -4 -4 -4 -3 -3 -3 -2 -2 -2 -2 -2 -1 -1 0 1 1 1 1 1 1 2 2 3 3
0 -2 -4 -5 -6 -5 -5 -4 -4 -4 -3 -3 -3 -3 -2 -2 -2 -2 -1 -1 -1 0 1 1 2 2 2 2 2 2 3 4
-0 -1 -4 -5 -5 -5 -4 -4 -3 -3 -3 -3 -2 -2 -2 -2 -1 -1 -1 -0 -0 0 1 1 2 2 2 2 3 2 3 4
-1 -2 -3 -4 -4 -4 -4 -3 -3 -3 -3 -2 -2 -2 -1 -1 -1 -0 0 0 0 1 1 2 2 2 2 3 3 3 3 3
-1 -2 -3 -3 -3 -4 -4 -3 -3 -2 -2 -2 -2 -1 -1 -0 0 0 0 0 1 1 1 2 2 2 2 2 3 3 3 3
-1 -2 -2 -3 -3 -3 -4 -3 -2 -2 -2 -2 -2 -1 -1 -0 0 1 1 0 1 1 1 2 2 2 2 2 2 2 2 2
-2 -2 -2 -3 -3 -3 -4 -3 -3 -2 -2 -2 -2 -2 -1 -0 0 1 1 1 1 1 2 2 2 2 2 2 2 2 2 2
-1 -1 -2 -2 -3 -3 -4 -3 -3 -2 -2 -2 -2 -2 -1 -1 0 1 1 1 1 1 2 2 2 2 2 2 2 2 2 2
-0 -1 -1 -2 -2 -3 -3 -3 -2 -2 -2 -2 -1 -1 -1 -1 0 1 1 2 2 2 2 2 2 2 2 2 2 2 2 2
1 0 -1 -1 -2 -3 -3 -2 -2 -2 -1 -1 -1 -1 -1 0 1 1 2 2 2 2 2 2 2 2 2 2 2 2 2 3